[[{"header":{"parameterUnit":"m.s-1","parameterCategory":1,"la1":30.2991,"la2":30.254,"lo1":-89.0895,"lo2":-89.0444,"dy":0.0017,"dx":0.0017,"nx":28,"ny":28,"refTime":"2024-10-08T03:00:00:Z","depth":0,"parameterNumber":2,"parameterNumberName":"U-component_of_WINDS"},"data":[0,0,0,0,0,0,0,0,0,0,0,0,0,0,0,0,0,0,0,0,0,0,0,0,0,0,0,0,0,0,0,0,0,0,0,0,0,0,0,0,0,0,0,0,0,0,0,0,0,0,0,0,0,0,0,0,0,0,-2.3351,-2.3352,0,-2.3429,-2.343,-2.3431,-2.3421,-2.3419,-2.3418,-2.3417,-2.3497,-2.3501,-2.3504,0,0,0,0,0,0,0,0,0,0,0,0,0,-2.3193,-2.3196,-2.3351,-2.3352,-2.3353,-2.3429,-2.343,-2.3431,-2.3421,-2.3419,-2.3418,-2.3416,-2.3496,-2.35,-2.3504,0,0,0,0,0,0,0,0,0,0,0,0,0,-2.3266,-2.3197,-2.3351,-2.3357,-2.3358,-2.3429,-2.343,-2.3431,-2.3421,-2.3419,-2.3417,-2.3415,-2.3495,-2.35,-2.3505,-2.3575,0,0,-2.352,-2.3522,0,0,0,0,0,0,0,0,-2.3262,-2.3272,-2.3355,-2.3357,-2.3358,-2.3413,-2.3404,-2.3479,-2.3422,-2.3397,-2.3417,-2.3414,-2.3471,-2.3478,-2.3497,-2.3578,-2.3582,-2.3521,-2.3524,-2.3526,-2.3527,0,0,0,0,0,0,0,-2.3257,-2.3268,-2.3382,-2.3356,-2.3358,-2.3356,-2.3364,-2.3418,-2.3444,-2.3399,-2.3399,-2.3408,-2.3471,-2.3492,-2.3499,-2.3583,-2.352,-2.3525,-2.3528,-2.353,-2.3727,-2.3729,0,0,0,0,0,0,-2.325,-2.3264,-2.3379,-2.3384,-2.3304,-2.336,-2.3369,-2.3397,-2.3443,-2.3449,-2.341,-2.3407,-2.3484,-2.3493,-2.3501,-2.3587,-2.3526,-2.353,-2.3533,-2.3725,-2.3727,-2.373,0,0,0,0,0,0,-2.3247,-2.326,-2.3376,-2.3324,-2.3339,-2.3365,-2.3397,-2.34,-2.3421,-2.3451,-2.3456,-2.3426,-2.3483,-2.3494,-2.3557,-2.359,-2.3533,-2.3537,-2.3722,-2.3725,-2.3729,-2.3759,0,0,0,0,0,0,-2.3242,-2.3259,-2.3286,-2.3325,-2.3341,-2.343,-2.3399,-2.3403,-2.3429,-2.3427,-2.3468,-2.3473,-2.3482,-2.3549,-2.3562,-2.3596,-2.3541,-2.3719,-2.3724,-2.3727,-2.3755,-2.3763,-2.3769,0,0,0,0,0,-2.3237,-2.3291,-2.3287,-2.3301,-2.3375,-2.3432,-2.3442,-2.3452,-2.3432,-2.3459,-2.3479,-2.3471,-2.3584,-2.3556,-2.357,-2.3606,-2.3717,-2.3722,-2.3727,-2.3752,-2.3761,-2.3769,0,0,0,0,0,0,-2.3256,-2.3296,-2.3293,-2.3361,-2.3393,-2.343,-2.3465,-2.3461,-2.35,-2.3496,-2.3507,-2.3516,-2.358,-2.3599,-2.3567,-2.3676,-2.3648,-2.3656,-2.3662,-2.3671,-2.3678,-2.3673,-2.3545,0,0,0,0,0,-2.3268,-2.331,-2.3344,-2.3401,-2.3417,-2.3438,-2.3463,-2.3468,-2.3502,-2.3516,-2.354,-2.3573,-2.3616,-2.3644,-2.3685,-2.3757,-2.3767,-2.3789,-2.3796,-2.3802,-2.3809,-2.385,-2.386,-2.3746,-2.3746,-2.3746,0,0,-2.3293,-2.3321,-2.3347,-2.3406,-2.3431,-2.3475,-2.345,-2.3498,-2.3531,-2.3523,-2.3584,-2.3603,-2.3641,-2.3708,-2.3739,-2.3726,-2.3843,-2.3808,-2.3812,-2.3817,-2.3856,-2.3867,-2.3876,-2.3749,-2.3749,-2.3748,0,0,-2.3363,-2.3388,-2.3439,-2.3465,-2.3504,-2.3518,-2.353,-2.3567,-2.358,-2.3641,-2.3636,-2.3676,-2.3749,-2.3777,-2.38,-2.3881,-2.3876,-2.3893,-2.3932,-2.3971,-2.398,-2.3988,-2.4019,-2.4029,-2.39,-2.39,-2.39,0,-2.3391,-2.3457,-2.3466,-2.3515,-2.3541,-2.3535,-2.3588,-2.3613,-2.3663,-2.3681,-2.3665,-2.3758,-2.3783,-2.3858,-2.3877,-2.3896,-2.3911,-2.389,-2.3978,-2.3986,-2.3994,-2.4023,-2.4034,-2.3902,-2.3902,-2.3902,-2.3902,0,-2.349,-2.3536,-2.3572,-2.3621,-2.3651,-2.3702,-2.3718,-2.3748,-2.375,-2.3765,-2.3828,-2.3858,-2.3905,-2.3923,-2.3925,-2.3998,-2.3989,-2.3976,-2.3948,-2.4007,-2.4035,-2.4046,-2.3905,-2.3905,-2.3904,-2.3904,0,0,-2.3575,-2.3628,-2.3641,-2.3664,-2.3706,-2.3742,-2.3792,-2.3839,-2.3865,-2.3899,-2.3942,-2.4004,-2.3992,-2.4019,-2.4024,-2.4059,-2.4123,-2.4041,-2.4042,-2.4057,-2.4207,-2.4218,-2.4231,-2.4119,-2.4121,-2.4122,-2.4204,0,-2.365,-2.3739,-2.3748,-2.3828,-2.3871,-2.3867,-2.391,-2.3941,-2.3957,-2.3996,-2.4013,-2.4058,-2.4038,-2.4054,-2.4088,-2.4108,-2.4153,-2.4102,-2.416,-2.4162,-2.4153,-2.4245,-2.4257,-2.4332,-2.4215,-2.4216,-2.4218,0,-2.375,-2.3788,-2.3872,-2.3909,-2.3928,-2.3967,-2.4011,-2.4048,-2.4083,-2.4092,-2.4122,-2.4123,-2.4175,-2.4144,-2.4217,-2.4182,-2.4206,-2.4219,-2.4222,-2.423,-2.4195,-2.4256,-2.4356,-2.4368,-2.4234,-2.4233,-2.4232,0,-2.3806,-2.3878,-2.3938,-2.3957,-2.4001,-2.4029,-2.4049,-2.4082,-2.411,-2.4148,-2.4166,-2.4209,-2.4234,-2.4268,-2.4281,-2.4256,-2.4353,-2.4323,-2.4363,-2.4363,-2.4386,-2.4384,-2.4493,-2.4398,-2.4398,-2.4398,-2.4397,0,-2.3891,-2.3943,-2.3964,-2.4001,-2.4059,-2.4069,-2.4127,-2.4145,-2.4175,-2.4216,-2.4213,-2.4252,-2.4266,-2.4307,-2.4317,-2.4377,-2.4387,-2.4397,-2.4399,-2.4398,-2.4397,-2.4416,-2.4411,-2.4401,-2.44,-2.4399,-2.4399,0,-2.3964,-2.398,-2.4045,-2.4082,-2.4092,-2.4134,-2.4165,-2.4201,-2.4216,-2.4268,-2.428,-2.4304,-2.4352,-2.4368,-2.4426,-2.4433,-2.4503,-2.45,-2.4491,-2.4492,-2.4533,-2.4529,-2.4658,-2.4677,-2.4568,-2.4569,-2.457,0,-2.4018,-2.4058,-2.4099,-2.4126,-2.4147,-2.4191,-2.4219,-2.423,-2.4259,-2.4302,-2.4334,-2.4381,-2.442,-2.4497,-2.452,-2.4564,-2.4564,-2.4606,-2.457,-2.4568,-2.4567,-2.4565,-2.457,-2.4613,-2.4614,-2.4615,-2.4616,0,-2.4112,-2.4118,-2.4159,-2.4203,-2.4236,-2.4271,-2.4305,-2.4328,-2.4344,-2.4377,-2.4426,-2.4456,-2.4516,-2.4563,-2.4609,-2.463,-2.4626,-2.4626,-2.4638,-2.4639,-2.4633,-2.4639,-2.4511,-2.4624,-2.4623,-2.4622,-2.4622,-2.4622,-2.4179,-2.4215,-2.4249,-2.4295,-2.4321,-2.4353,-2.4389,-2.4408,-2.4449,-2.4499,-2.4502,-2.4556,-2.459,-2.4651,-2.4674,-2.4716,-2.4705,-2.4722,-2.4726,-2.4731,-2.4735,-2.4624,-2.4724,-2.4724,-2.4724,-2.4724,-2.4724,0,-2.4275,-2.4297,-2.4338,-2.4386,-2.4422,-2.4414,-2.4451,-2.4482,-2.4529,-2.4562,-2.46,-2.4657,-2.4703,-2.4729,-2.4776,-2.4805,-2.4804,-2.4817,-2.4816,-2.4821,-2.4742,-2.4728,-2.4816,-2.4816,-2.4816,-2.4816,-2.4816,-2.4816,-2.4329,-2.439,-2.44,-2.4474,-2.4495,-2.4548,-2.457,-2.4599,-2.4625,-2.4689,-2.4728,-2.4744,-2.4774,-2.4823,-2.4865,-2.4871,-2.489,-2.4904,-2.4909,-2.4836,-2.4826,-2.4817,-2.4804,-2.4907,-2.4907,-2.4985,-2.4985,-2.4986]},{"header":{"parameterUnit":"m.s-1","parameterCategory":1,"la1":30.2991,"la2":30.254,"lo1":-89.0895,"lo2":-89.0444,"dy":0.0017,"dx":0.0017,"nx":28,"ny":28,"refTime":"2024-10-08T03:00:00:Z","depth":0,"parameterNumber":3,"parameterNumberName":"V-component_of_WINDS"},"data":[0,0,0,0,0,0,0,0,0,0,0,0,0,0,0,0,0,0,0,0,0,0,0,0,0,0,0,0,0,0,0,0,0,0,0,0,0,0,0,0,0,0,0,0,0,0,0,0,0,0,0,0,0,0,0,0,0,0,-4.8317,-4.8317,0,-4.835,-4.835,-4.8351,-4.8283,-4.828,-4.8278,-4.8276,-4.8306,-4.8309,-4.8312,0,0,0,0,0,0,0,0,0,0,0,0,0,-4.819,-4.8193,-4.8317,-4.8317,-4.8317,-4.835,-4.835,-4.8351,-4.8283,-4.828,-4.8278,-4.8275,-4.8305,-4.8309,-4.8312,0,0,0,0,0,0,0,0,0,0,0,0,0,-4.8237,-4.8194,-4.8317,-4.8288,-4.8285,-4.835,-4.835,-4.8351,-4.8284,-4.828,-4.8277,-4.8274,-4.8304,-4.8308,-4.8313,-4.8406,0,0,-4.8326,-4.8328,0,0,0,0,0,0,0,0,-4.8234,-4.8241,-4.8291,-4.829,-4.8287,-4.8309,-4.8317,-4.8369,-4.8284,-4.8284,-4.8276,-4.8272,-4.831,-4.8313,-4.8327,-4.8407,-4.8408,-4.8326,-4.8329,-4.8331,-4.8332,0,0,0,0,0,0,0,-4.8231,-4.8239,-4.833,-4.8292,-4.829,-4.8272,-4.8275,-4.8326,-4.8315,-4.8284,-4.8279,-4.8284,-4.8308,-4.8323,-4.8327,-4.8409,-4.8326,-4.833,-4.8332,-4.8334,-4.8567,-4.8571,0,0,0,0,0,0,-4.8232,-4.8237,-4.8329,-4.8331,-4.8252,-4.8277,-4.828,-4.8305,-4.8314,-4.8312,-4.8287,-4.8281,-4.8317,-4.8322,-4.8328,-4.8438,-4.8331,-4.8335,-4.8337,-4.8564,-4.8568,-4.8572,0,0,0,0,0,0,-4.8229,-4.8241,-4.8327,-4.8283,-4.8292,-4.8282,-4.8311,-4.8308,-4.8322,-4.8317,-4.8314,-4.8305,-4.8314,-4.8322,-4.8387,-4.8438,-4.8337,-4.834,-4.8559,-4.8565,-4.857,-4.8658,0,0,0,0,0,0,-4.8226,-4.824,-4.8276,-4.8284,-4.8295,-4.8388,-4.8314,-4.8311,-4.8331,-4.8323,-4.8332,-4.8331,-4.8312,-4.8381,-4.8391,-4.8442,-4.8344,-4.8555,-4.8562,-4.8568,-4.8651,-4.8666,-4.8679,0,0,0,0,0,-4.8222,-4.8299,-4.8279,-4.829,-4.834,-4.8391,-4.8397,-4.8375,-4.8335,-4.8371,-4.8367,-4.833,-4.843,-4.8388,-4.8399,-4.8452,-4.8552,-4.856,-4.8568,-4.8644,-4.8663,-4.8679,0,0,0,0,0,0,-4.8295,-4.8299,-4.8277,-4.8359,-4.8375,-4.8379,-4.8423,-4.8396,-4.8423,-4.8414,-4.8385,-4.8388,-4.8459,-4.8462,-4.8415,-4.8542,-4.8484,-4.8495,-4.8538,-4.8556,-4.857,-4.8568,-4.8347,0,0,0,0,0,-4.8322,-4.8364,-4.8364,-4.8436,-4.8446,-4.8434,-4.8455,-4.8437,-4.8452,-4.8458,-4.8459,-4.8474,-4.8509,-4.8532,-4.8564,-4.865,-4.8652,-4.8692,-4.8706,-4.8718,-4.8728,-4.8774,-4.8792,-4.8599,-4.8599,-4.8598,0,0,-4.8375,-4.8382,-4.8411,-4.8451,-4.8462,-4.8505,-4.844,-4.8488,-4.8519,-4.8465,-4.8528,-4.8529,-4.8544,-4.8621,-4.8654,-4.8625,-4.8781,-4.8728,-4.8738,-4.8741,-4.8784,-4.8803,-4.8819,-4.8604,-4.8603,-4.8602,0,0,-4.8496,-4.8505,-4.8567,-4.858,-4.8597,-4.8589,-4.8603,-4.8612,-4.8611,-4.8674,-4.8634,-4.867,-4.8731,-4.8743,-4.8758,-4.8884,-4.8851,-4.8895,-4.8969,-4.9015,-4.903,-4.9043,-4.9089,-4.9106,-4.8904,-4.8904,-4.8905,0,-4.856,-4.8625,-4.8602,-4.8654,-4.8673,-4.8627,-4.8689,-4.8701,-4.8728,-4.8742,-4.8708,-4.8784,-4.8791,-4.887,-4.8901,-4.8914,-4.893,-4.8894,-4.903,-4.9043,-4.9055,-4.9098,-4.9115,-4.891,-4.8909,-4.8909,-4.8908,0,-4.8704,-4.8749,-4.8797,-4.8826,-4.885,-4.8906,-4.8891,-4.8918,-4.8898,-4.8893,-4.8957,-4.8963,-4.8996,-4.9013,-4.8994,-4.909,-4.9072,-4.9035,-4.8975,-4.9079,-4.9119,-4.9136,-4.8917,-4.8915,-4.8914,-4.8912,0,0,-4.8871,-4.8888,-4.8906,-4.8919,-4.8935,-4.8969,-4.9023,-4.9056,-4.908,-4.91,-4.9144,-4.9197,-4.9163,-4.918,-4.9161,-4.9201,-4.9301,-4.9159,-4.9159,-4.9186,-4.9409,-4.9438,-4.9457,-4.928,-4.9283,-4.9285,-4.9408,0,-4.8991,-4.9087,-4.9068,-4.9161,-4.9203,-4.916,-4.9207,-4.9222,-4.9218,-4.9252,-4.9247,-4.9286,-4.9237,-4.9247,-4.9285,-4.9281,-4.9346,-4.9272,-4.9321,-4.9323,-4.932,-4.9478,-4.9508,-4.9624,-4.9423,-4.9426,-4.9428,0,-4.9145,-4.9172,-4.927,-4.9281,-4.9297,-4.934,-4.937,-4.9403,-4.9418,-4.9413,-4.9432,-4.9406,-4.9458,-4.9398,-4.9471,-4.9421,-4.9439,-4.9441,-4.9444,-4.9449,-4.9382,-4.9487,-4.966,-4.9678,-4.9452,-4.945,-4.9449,0,-4.9259,-4.932,-4.9387,-4.9399,-4.9412,-4.9444,-4.945,-4.9463,-4.9484,-4.9509,-4.9523,-4.9553,-4.957,-4.9594,-4.9576,-4.9534,-4.9652,-4.959,-4.9648,-4.9649,-4.9676,-4.9674,-4.9855,-4.9686,-4.9686,-4.9686,-4.9685,0,-4.9395,-4.9457,-4.9438,-4.9479,-4.9547,-4.9524,-4.9591,-4.9592,-4.9604,-4.9644,-4.9607,-4.9645,-4.9619,-4.9655,-4.9641,-4.9703,-4.9711,-4.9707,-4.9703,-4.9711,-4.9712,-4.9724,-4.9716,-4.969,-4.9689,-4.9688,-4.9688,0,-4.9534,-4.9524,-4.9594,-4.9602,-4.9605,-4.9655,-4.9661,-4.9699,-4.9692,-4.9743,-4.9754,-4.9744,-4.9784,-4.9769,-4.981,-4.9801,-4.9881,-4.9866,-4.9877,-4.9874,-4.9933,-4.9928,-5.0128,-5.0154,-4.9968,-4.997,-4.9971,0,-4.9623,-4.967,-4.9683,-4.9708,-4.9718,-4.9759,-4.9781,-4.976,-4.9784,-4.9806,-4.9841,-4.9878,-4.9907,-4.9972,-4.9968,-5.0,-4.9986,-5.0054,-4.999,-4.9997,-4.9988,-4.9986,-4.9991,-5.0067,-5.0069,-5.007,-5.0072,0,-4.9782,-4.9775,-4.9809,-4.9843,-4.9871,-4.9895,-4.9917,-4.9939,-4.9918,-4.9948,-4.9989,-5.0012,-5.0055,-5.0093,-5.0121,-5.0126,-5.0096,-5.0092,-5.0107,-5.0117,-5.0122,-5.0121,-4.9913,-5.0088,-5.0086,-5.0085,-5.0084,-5.0083,-4.9899,-4.9939,-4.9955,-4.9995,-5.0009,-5.003,-5.0066,-5.0065,-5.01,-5.0135,-5.012,-5.0168,-5.0182,-5.0217,-5.0227,-5.0264,-5.0237,-5.0259,-5.0265,-5.0271,-5.0279,-5.0115,-5.0268,-5.0268,-5.0268,-5.0267,-5.0267,0,-5.0056,-5.0065,-5.0102,-5.0134,-5.0165,-5.0135,-5.0157,-5.0185,-5.0228,-5.0245,-5.0274,-5.0322,-5.0358,-5.0357,-5.039,-5.042,-5.0407,-5.0429,-5.0427,-5.0429,-5.0301,-5.0285,-5.0439,-5.0439,-5.0439,-5.0439,-5.0439,-5.0439,-5.0142,-5.0209,-5.0204,-5.0277,-5.0284,-5.0333,-5.0348,-5.0367,-5.038,-5.0435,-5.0466,-5.0466,-5.0475,-5.0509,-5.054,-5.0539,-5.0553,-5.0581,-5.0575,-5.0455,-5.0438,-5.0422,-5.0407,-5.0584,-5.0584,-5.07,-5.0701,-5.0702]}]]